Year,Month,Day,Hour,Minute,Value (Times are PST for temperature in C)
2009,08,16,00,00,12.30
2009,08,16,00,01,12.20
2009,08,16,00,02,12.20
2009,08,16,00,03,12.20
2009,08,16,00,04,12.20
2009,08,16,00,05,12.20
2009,08,16,00,06,12.20
2009,08,16,00,07,12.10
2009,08,16,00,08,12.10
2009,08,16,00,09,12.10
2009,08,16,00,10,12.10
2009,08,16,00,11,12.10
2009,08,16,00,12,12.10
2009,08,16,00,13,12.10
2009,08,16,00,14,12.10
2009,08,16,00,15,12.10
2009,08,16,00,16,12.10
2009,08,16,00,17,12.10
2009,08,16,00,18,12.20
2009,08,16,00,19,12.20
2009,08,16,00,20,12.20
2009,08,16,00,21,12.20
2009,08,16,00,22,12.20
2009,08,16,00,23,12.10
2009,08,16,00,24,12.10
2009,08,16,00,25,12.10
2009,08,16,00,26,12.10
2009,08,16,00,27,12.10
2009,08,16,00,28,12.10
2009,08,16,00,29,12.20
2009,08,16,00,30,12.20
2009,08,16,00,31,12.20
2009,08,16,00,32,12.10
2009,08,16,00,33,12.10
2009,08,16,00,34,12.10
2009,08,16,00,35,12.10
2009,08,16,00,36,12.10
2009,08,16,00,37,12.10
2009,08,16,00,38,12.10
2009,08,16,00,39,12.10
2009,08,16,00,40,12.10
2009,08,16,00,41,12.10
2009,08,16,00,42,12.00
2009,08,16,00,43,12.00
2009,08,16,00,44,12.00
2009,08,16,00,45,12.00
2009,08,16,00,46,12.00
2009,08,16,00,47,12.00
2009,08,16,00,48,12.00
2009,08,16,00,49,12.10
2009,08,16,00,50,12.10
2009,08,16,00,51,12.10
2009,08,16,00,52,12.10
2009,08,16,00,53,12.10
2009,08,16,00,54,12.10
2009,08,16,00,55,12.10
2009,08,16,00,56,12.10
2009,08,16,00,57,12.00
2009,08,16,00,58,12.00
2009,08,16,00,59,12.00
2009,08,16,01,00,11.90
2009,08,16,01,01,11.90
2009,08,16,01,02,11.90
2009,08,16,01,03,11.90
2009,08,16,01,04,11.90
2009,08,16,01,05,11.90
2009,08,16,01,06,11.90
2009,08,16,01,07,11.90
2009,08,16,01,08,11.90
2009,08,16,01,09,11.90
2009,08,16,01,10,11.80
2009,08,16,01,11,11.80
2009,08,16,01,12,11.80
2009,08,16,01,13,11.80
2009,08,16,01,14,11.80
2009,08,16,01,15,11.80
2009,08,16,01,16,11.80
2009,08,16,01,17,11.80
2009,08,16,01,18,11.80
2009,08,16,01,19,11.80
2009,08,16,01,20,11.80
2009,08,16,01,21,11.80
2009,08,16,01,22,11.80
2009,08,16,01,23,11.80
2009,08,16,01,24,11.80
2009,08,16,01,25,11.80
2009,08,16,01,26,11.80
2009,08,16,01,27,11.80
2009,08,16,01,28,11.80
2009,08,16,01,29,11.80
2009,08,16,01,30,11.90
2009,08,16,01,31,11.90
2009,08,16,01,32,11.80
2009,08,16,01,33,11.80
2009,08,16,01,34,11.80
2009,08,16,01,35,11.80
2009,08,16,01,36,11.80
2009,08,16,01,37,11.80
2009,08,16,01,38,11.80
2009,08,16,01,39,11.80
2009,08,16,01,40,11.80
2009,08,16,01,41,11.70
2009,08,16,01,42,11.70
2009,08,16,01,43,11.70
2009,08,16,01,44,11.70
2009,08,16,01,45,11.70
2009,08,16,01,46,11.70
2009,08,16,01,47,11.60
2009,08,16,01,48,11.60
2009,08,16,01,49,11.60
2009,08,16,01,50,11.60
2009,08,16,01,51,11.60
2009,08,16,01,52,11.60
2009,08,16,01,53,11.60
2009,08,16,01,54,11.60
2009,08,16,01,55,11.60
2009,08,16,01,56,11.60
2009,08,16,01,57,11.60
2009,08,16,01,58,11.50
2009,08,16,01,59,11.40
2009,08,16,02,00,11.40
2009,08,16,02,01,11.40
2009,08,16,02,02,11.40
2009,08,16,02,03,11.40
2009,08,16,02,04,11.40
2009,08,16,02,05,11.40
2009,08,16,02,06,11.40
2009,08,16,02,07,11.40
2009,08,16,02,08,11.40
2009,08,16,02,09,11.40
2009,08,16,02,10,11.40
2009,08,16,02,11,11.40
2009,08,16,02,12,11.40
2009,08,16,02,13,11.40
2009,08,16,02,14,11.40
2009,08,16,02,15,11.40
2009,08,16,02,16,11.40
2009,08,16,02,17,11.40
2009,08,16,02,18,11.40
2009,08,16,02,19,11.40
2009,08,16,02,20,11.40
2009,08,16,02,21,11.30
2009,08,16,02,22,11.30
2009,08,16,02,23,11.30
2009,08,16,02,24,11.20
2009,08,16,02,25,11.20
2009,08,16,02,26,11.20
2009,08,16,02,27,11.20
2009,08,16,02,28,11.20
2009,08,16,02,29,11.20
2009,08,16,02,30,11.20
2009,08,16,02,31,11.20
2009,08,16,02,32,11.20
2009,08,16,02,33,11.20
2009,08,16,02,34,11.20
2009,08,16,02,35,11.20
2009,08,16,02,36,11.20
2009,08,16,02,37,11.20
2009,08,16,02,38,11.20
2009,08,16,02,39,11.20
2009,08,16,02,40,11.10
2009,08,16,02,41,11.10
2009,08,16,02,42,11.10
2009,08,16,02,43,11.10
2009,08,16,02,44,11.10
2009,08,16,02,45,11.10
2009,08,16,02,46,11.10
2009,08,16,02,47,11.10
2009,08,16,02,48,11.10
2009,08,16,02,49,11.10
2009,08,16,02,50,11.10
2009,08,16,02,51,11.10
2009,08,16,02,52,11.10
2009,08,16,02,53,11.20
2009,08,16,02,54,11.20
2009,08,16,02,55,11.20
2009,08,16,02,56,11.20
2009,08,16,02,57,11.10
2009,08,16,02,58,11.10
2009,08,16,02,59,11.10
2009,08,16,03,00,11.10
2009,08,16,03,01,11.10
2009,08,16,03,02,11.10
2009,08,16,03,03,11.10
2009,08,16,03,04,11.10
2009,08,16,03,05,11.10
2009,08,16,03,06,11.10
2009,08,16,03,07,11.10
2009,08,16,03,08,11.10
2009,08,16,03,09,11.10
2009,08,16,03,10,11.10
2009,08,16,03,11,11.10
2009,08,16,03,12,11.10
2009,08,16,03,13,11.10
2009,08,16,03,14,11.10
2009,08,16,03,15,11.10
2009,08,16,03,16,11.10
2009,08,16,03,17,11.10
2009,08,16,03,18,11.10
2009,08,16,03,19,11.10
2009,08,16,03,20,11.10
2009,08,16,03,21,11.10
2009,08,16,03,22,11.10
2009,08,16,03,23,11.10
2009,08,16,03,24,11.10
2009,08,16,03,25,11.10
2009,08,16,03,26,11.10
2009,08,16,03,27,11.10
2009,08,16,03,28,11.10
2009,08,16,03,29,11.10
2009,08,16,03,30,11.10
2009,08,16,03,31,11.10
2009,08,16,03,32,11.10
2009,08,16,03,33,11.10
2009,08,16,03,34,11.10
2009,08,16,03,35,11.10
2009,08,16,03,36,11.00
2009,08,16,03,37,10.90
2009,08,16,03,38,10.90
2009,08,16,03,39,10.90
2009,08,16,03,40,10.90
2009,08,16,03,41,10.90
2009,08,16,03,42,10.90
2009,08,16,03,43,10.80
2009,08,16,03,44,10.80
2009,08,16,03,45,10.80
2009,08,16,03,46,10.70
2009,08,16,03,47,10.70
2009,08,16,03,48,10.70
2009,08,16,03,49,10.70
2009,08,16,03,50,10.60
2009,08,16,03,51,10.60
2009,08,16,03,52,10.60
2009,08,16,03,53,10.60
2009,08,16,03,54,10.60
2009,08,16,03,55,10.60
2009,08,16,03,56,10.60
2009,08,16,03,57,10.60
2009,08,16,03,58,10.60
2009,08,16,03,59,10.60
2009,08,16,04,00,10.60
2009,08,16,04,01,10.60
2009,08,16,04,02,10.60
2009,08,16,04,03,10.60
2009,08,16,04,04,10.60
2009,08,16,04,05,10.60
2009,08,16,04,06,10.60
2009,08,16,04,07,10.60
2009,08,16,04,08,10.60
2009,08,16,04,09,10.60
2009,08,16,04,10,10.60
2009,08,16,04,11,10.60
2009,08,16,04,12,10.70
2009,08,16,04,13,10.70
2009,08,16,04,14,10.70
2009,08,16,04,15,10.60
2009,08,16,04,16,10.60
2009,08,16,04,17,10.60
2009,08,16,04,18,10.60
2009,08,16,04,19,10.60
2009,08,16,04,20,10.60
2009,08,16,04,21,10.60
2009,08,16,04,22,10.60
2009,08,16,04,23,10.60
2009,08,16,04,24,10.60
2009,08,16,04,25,10.60
2009,08,16,04,26,10.60
2009,08,16,04,27,10.60
2009,08,16,04,28,10.60
2009,08,16,04,29,10.60
2009,08,16,04,30,10.60
2009,08,16,04,31,10.60
2009,08,16,04,32,10.70
2009,08,16,04,33,10.70
2009,08,16,04,34,10.70
2009,08,16,04,35,10.70
2009,08,16,04,36,10.70
2009,08,16,04,37,10.70
2009,08,16,04,38,10.70
2009,08,16,04,39,10.70
2009,08,16,04,40,10.70
2009,08,16,04,41,10.70
2009,08,16,04,42,10.70
2009,08,16,04,43,10.70
2009,08,16,04,44,10.60
2009,08,16,04,45,10.60
2009,08,16,04,46,10.60
2009,08,16,04,47,10.60
2009,08,16,04,48,10.60
2009,08,16,04,49,10.60
2009,08,16,04,50,10.60
2009,08,16,04,51,10.60
2009,08,16,04,52,10.60
2009,08,16,04,53,10.60
2009,08,16,04,54,10.60
2009,08,16,04,55,10.60
2009,08,16,04,56,10.60
2009,08,16,04,57,10.60
2009,08,16,04,58,10.60
2009,08,16,04,59,10.60
2009,08,16,05,00,10.60
2009,08,16,05,01,10.60
2009,08,16,05,02,10.60
2009,08,16,05,03,10.60
2009,08,16,05,04,10.60
2009,08,16,05,05,10.60
2009,08,16,05,06,10.60
2009,08,16,05,07,10.60
2009,08,16,05,08,10.70
2009,08,16,05,09,10.70
2009,08,16,05,10,10.70
2009,08,16,05,11,10.70
2009,08,16,05,12,10.70
2009,08,16,05,13,10.70
2009,08,16,05,14,10.70
2009,08,16,05,15,10.70
2009,08,16,05,16,10.70
2009,08,16,05,17,10.70
2009,08,16,05,18,10.70
2009,08,16,05,19,10.70
2009,08,16,05,20,10.70
2009,08,16,05,21,10.60
2009,08,16,05,22,10.60
2009,08,16,05,23,10.60
2009,08,16,05,24,10.60
2009,08,16,05,25,10.60
2009,08,16,05,26,10.60
2009,08,16,05,27,10.60
2009,08,16,05,28,10.60
2009,08,16,05,29,10.60
2009,08,16,05,30,10.60
2009,08,16,05,31,10.60
2009,08,16,05,32,10.60
2009,08,16,05,33,10.60
2009,08,16,05,34,10.60
2009,08,16,05,35,10.60
2009,08,16,05,36,10.70
2009,08,16,05,37,10.70
2009,08,16,05,38,10.70
2009,08,16,05,39,10.70
2009,08,16,05,40,10.60
2009,08,16,05,41,10.60
2009,08,16,05,42,10.60
2009,08,16,05,43,10.60
2009,08,16,05,44,10.60
2009,08,16,05,45,10.60
2009,08,16,05,46,10.60
2009,08,16,05,47,10.60
2009,08,16,05,48,10.60
2009,08,16,05,49,10.60
2009,08,16,05,50,10.60
2009,08,16,05,51,10.60
2009,08,16,05,52,10.60
2009,08,16,05,53,10.60
2009,08,16,05,54,10.60
2009,08,16,05,55,10.60
2009,08,16,05,56,10.60
2009,08,16,05,57,10.60
2009,08,16,05,58,10.60
2009,08,16,05,59,10.60
2009,08,16,06,00,10.60
2009,08,16,06,01,10.60
2009,08,16,06,02,10.60
2009,08,16,06,03,10.60
2009,08,16,06,04,10.60
2009,08,16,06,05,10.60
2009,08,16,06,06,10.60
2009,08,16,06,07,10.60
2009,08,16,06,08,10.60
2009,08,16,06,09,10.60
2009,08,16,06,10,10.60
2009,08,16,06,11,10.50
2009,08,16,06,12,10.40
2009,08,16,06,13,10.40
2009,08,16,06,14,10.40
2009,08,16,06,15,10.40
2009,08,16,06,16,10.40
2009,08,16,06,17,10.40
2009,08,16,06,18,10.40
2009,08,16,06,19,10.40
2009,08,16,06,20,10.40
2009,08,16,06,21,10.40
2009,08,16,06,22,10.40
2009,08,16,06,23,10.40
2009,08,16,06,24,10.50
2009,08,16,06,25,10.60
2009,08,16,06,26,10.60
2009,08,16,06,27,10.60
2009,08,16,06,28,10.60
2009,08,16,06,29,10.60
2009,08,16,06,30,10.60
2009,08,16,06,31,10.60
2009,08,16,06,32,10.60
2009,08,16,06,33,10.60
2009,08,16,06,34,10.60
2009,08,16,06,35,10.60
2009,08,16,06,36,10.60
2009,08,16,06,37,10.60
2009,08,16,06,38,10.60
2009,08,16,06,39,10.60
2009,08,16,06,40,10.60
2009,08,16,06,41,10.60
2009,08,16,06,42,10.60
2009,08,16,06,43,10.60
2009,08,16,06,44,10.60
2009,08,16,06,45,10.60
2009,08,16,06,46,10.60
2009,08,16,06,47,10.60
2009,08,16,06,48,10.60
2009,08,16,06,49,10.60
2009,08,16,06,50,10.50
2009,08,16,06,51,10.40
2009,08,16,06,52,10.40
2009,08,16,06,53,10.40
2009,08,16,06,54,10.40
2009,08,16,06,55,10.40
2009,08,16,06,56,10.40
2009,08,16,06,57,10.40
2009,08,16,06,58,10.40
2009,08,16,06,59,10.40
2009,08,16,07,00,10.40
2009,08,16,07,01,10.50
2009,08,16,07,02,10.60
2009,08,16,07,03,10.60
2009,08,16,07,04,10.60
2009,08,16,07,05,10.60
2009,08,16,07,06,10.60
2009,08,16,07,07,10.70
2009,08,16,07,08,10.70
2009,08,16,07,09,10.70
2009,08,16,07,10,10.70
2009,08,16,07,11,10.80
2009,08,16,07,12,10.80
2009,08,16,07,13,10.80
2009,08,16,07,14,10.80
2009,08,16,07,15,10.90
2009,08,16,07,16,10.90
2009,08,16,07,17,10.90
2009,08,16,07,18,10.90
2009,08,16,07,19,10.90
2009,08,16,07,20,11.10
2009,08,16,07,21,11.10
2009,08,16,07,22,11.10
2009,08,16,07,23,11.20
2009,08,16,07,24,11.20
2009,08,16,07,25,11.20
2009,08,16,07,26,11.30
2009,08,16,07,27,11.30
2009,08,16,07,28,11.40
2009,08,16,07,29,11.40
2009,08,16,07,30,11.40
2009,08,16,07,31,11.40
2009,08,16,07,32,11.40
2009,08,16,07,33,11.50
2009,08,16,07,34,11.60
2009,08,16,07,35,11.60
2009,08,16,07,36,11.60
2009,08,16,07,37,11.70
2009,08,16,07,38,11.70
2009,08,16,07,39,11.80
2009,08,16,07,40,11.80
2009,08,16,07,41,11.80
2009,08,16,07,42,11.80
2009,08,16,07,43,11.90
2009,08,16,07,44,12.00
2009,08,16,07,45,12.00
2009,08,16,07,46,12.10
2009,08,16,07,47,12.10
2009,08,16,07,48,12.20
2009,08,16,07,49,12.20
2009,08,16,07,50,12.30
2009,08,16,07,51,12.30
2009,08,16,07,52,12.30
2009,08,16,07,53,12.30
2009,08,16,07,54,12.40
2009,08,16,07,55,12.50
2009,08,16,07,56,12.60
2009,08,16,07,57,12.60
2009,08,16,07,58,12.70
2009,08,16,07,59,12.80
2009,08,16,08,00,12.80
2009,08,16,08,01,12.80
2009,08,16,08,02,12.90
2009,08,16,08,03,12.90
2009,08,16,08,04,12.90
2009,08,16,08,05,13.00
2009,08,16,08,06,13.00
2009,08,16,08,07,13.10
2009,08,16,08,08,13.10
2009,08,16,08,09,13.20
2009,08,16,08,10,13.20
2009,08,16,08,11,13.30
2009,08,16,08,12,13.30
2009,08,16,08,13,13.40
2009,08,16,08,14,13.40
2009,08,16,08,15,13.50
2009,08,16,08,16,13.50
2009,08,16,08,17,13.60
2009,08,16,08,18,13.60
2009,08,16,08,19,13.70
2009,08,16,08,20,13.70
2009,08,16,08,21,13.80
2009,08,16,08,22,13.80
2009,08,16,08,23,13.90
2009,08,16,08,24,14.00
2009,08,16,08,25,14.10
2009,08,16,08,26,14.10
2009,08,16,08,27,14.20
2009,08,16,08,28,14.20
2009,08,16,08,29,14.30
2009,08,16,08,30,14.40
2009,08,16,08,31,14.40
2009,08,16,08,32,14.50
2009,08,16,08,33,14.60
2009,08,16,08,34,14.60
2009,08,16,08,35,14.60
2009,08,16,08,36,14.70
2009,08,16,08,37,14.80
2009,08,16,08,38,14.80
2009,08,16,08,39,14.90
2009,08,16,08,40,14.90
2009,08,16,08,41,15.00
2009,08,16,08,42,15.10
2009,08,16,08,43,15.10
2009,08,16,08,44,15.10
2009,08,16,08,45,15.20
2009,08,16,08,46,15.20
2009,08,16,08,47,15.30
2009,08,16,08,48,15.30
2009,08,16,08,49,15.40
2009,08,16,08,50,15.50
2009,08,16,08,51,15.60
2009,08,16,08,52,15.60
2009,08,16,08,53,15.80
2009,08,16,08,54,15.80
2009,08,16,08,55,15.80
2009,08,16,08,56,15.90
2009,08,16,08,57,15.90
2009,08,16,08,58,16.00
2009,08,16,08,59,16.10
2009,08,16,09,00,16.10
2009,08,16,09,01,16.20
2009,08,16,09,02,16.30
2009,08,16,09,03,16.30
2009,08,16,09,04,16.40
2009,08,16,09,05,16.50
2009,08,16,09,06,16.60
2009,08,16,09,07,16.60
2009,08,16,09,08,16.70
2009,08,16,09,09,16.70
2009,08,16,09,10,16.80
2009,08,16,09,11,16.90
2009,08,16,09,12,16.90
2009,08,16,09,13,17.00
2009,08,16,09,14,17.00
2009,08,16,09,15,17.10
2009,08,16,09,16,17.10
2009,08,16,09,17,17.20
2009,08,16,09,18,17.20
2009,08,16,09,19,17.20
2009,08,16,09,20,17.30
2009,08,16,09,21,17.30
2009,08,16,09,22,17.30
2009,08,16,09,23,17.30
2009,08,16,09,24,17.30
2009,08,16,09,25,17.30
2009,08,16,09,26,17.40
2009,08,16,09,27,17.40
2009,08,16,09,28,17.40
2009,08,16,09,29,17.50
2009,08,16,09,30,17.50
2009,08,16,09,31,17.60
2009,08,16,09,32,17.70
2009,08,16,09,33,17.70
2009,08,16,09,34,17.80
2009,08,16,09,35,17.90
2009,08,16,09,36,17.90
2009,08,16,09,37,18.00
2009,08,16,09,38,18.10
2009,08,16,09,39,18.10
2009,08,16,09,40,18.10
2009,08,16,09,41,18.10
2009,08,16,09,42,18.20
2009,08,16,09,43,18.10
2009,08,16,09,44,18.10
2009,08,16,09,45,18.10
2009,08,16,09,46,18.10
2009,08,16,09,47,18.10
2009,08,16,09,48,18.20
2009,08,16,09,49,18.20
2009,08,16,09,50,18.20
2009,08,16,09,51,18.20
2009,08,16,09,52,18.10
2009,08,16,09,53,18.10
2009,08,16,09,54,18.00
2009,08,16,09,55,17.90
2009,08,16,09,56,18.00
2009,08,16,09,57,18.10
2009,08,16,09,58,18.10
2009,08,16,09,59,18.10
2009,08,16,10,00,18.30
2009,08,16,10,01,18.40
2009,08,16,10,02,18.40
2009,08,16,10,03,18.40
2009,08,16,10,04,18.50
2009,08,16,10,05,18.60
2009,08,16,10,06,18.60
2009,08,16,10,07,18.70
2009,08,16,10,08,18.70
2009,08,16,10,09,18.70
2009,08,16,10,10,18.70
2009,08,16,10,11,18.70
2009,08,16,10,12,18.70
2009,08,16,10,13,18.70
2009,08,16,10,14,18.70
2009,08,16,10,15,18.70
2009,08,16,10,16,18.70
2009,08,16,10,17,18.70
2009,08,16,10,18,18.60
2009,08,16,10,19,18.70
2009,08,16,10,20,18.80
2009,08,16,10,21,18.90
2009,08,16,10,22,18.90
2009,08,16,10,23,18.90
2009,08,16,10,24,18.90
2009,08,16,10,25,18.90
2009,08,16,10,26,18.80
2009,08,16,10,27,18.70
2009,08,16,10,28,18.60
2009,08,16,10,29,18.60
2009,08,16,10,30,18.60
2009,08,16,10,31,18.70
2009,08,16,10,32,18.90
2009,08,16,10,33,19.00
2009,08,16,10,34,19.10
2009,08,16,10,35,19.00
2009,08,16,10,36,19.00
2009,08,16,10,37,19.10
2009,08,16,10,38,19.10
2009,08,16,10,39,19.10
2009,08,16,10,40,19.10
2009,08,16,10,41,19.10
2009,08,16,10,42,19.10
2009,08,16,10,43,19.20
2009,08,16,10,44,19.10
2009,08,16,10,45,19.10
2009,08,16,10,46,19.10
2009,08,16,10,47,19.10
2009,08,16,10,48,19.10
2009,08,16,10,49,19.10
2009,08,16,10,50,19.20
2009,08,16,10,51,19.30
2009,08,16,10,52,19.40
2009,08,16,10,53,19.60
2009,08,16,10,54,19.60
2009,08,16,10,55,19.70
2009,08,16,10,56,19.80
2009,08,16,10,57,19.80
2009,08,16,10,58,19.90
2009,08,16,10,59,19.90
2009,08,16,11,00,19.90
2009,08,16,11,01,19.90
2009,08,16,11,02,19.90
2009,08,16,11,03,19.90
2009,08,16,11,04,19.90
2009,08,16,11,05,19.80
2009,08,16,11,06,19.50
2009,08,16,11,07,19.50
2009,08,16,11,08,19.50
2009,08,16,11,09,19.50
2009,08,16,11,10,19.60
2009,08,16,11,11,19.70
2009,08,16,11,12,19.80
2009,08,16,11,13,19.80
2009,08,16,11,14,19.70
2009,08,16,11,15,19.70
2009,08,16,11,16,19.70
2009,08,16,11,17,19.80
2009,08,16,11,18,19.80
2009,08,16,11,19,19.90
2009,08,16,11,20,19.90
2009,08,16,11,21,20.10
2009,08,16,11,22,20.30
2009,08,16,11,23,20.40
2009,08,16,11,24,20.40
2009,08,16,11,25,20.30
2009,08,16,11,26,20.20
2009,08,16,11,27,20.10
2009,08,16,11,28,20.10
2009,08,16,11,29,20.10
2009,08,16,11,30,20.10
2009,08,16,11,31,20.20
2009,08,16,11,32,20.20
2009,08,16,11,33,20.20
2009,08,16,11,34,20.10
2009,08,16,11,35,20.10
2009,08,16,11,36,20.10
2009,08,16,11,37,20.20
2009,08,16,11,38,20.20
2009,08,16,11,39,20.40
2009,08,16,11,40,20.40
2009,08,16,11,41,20.30
2009,08,16,11,42,20.20
2009,08,16,11,43,20.20
2009,08,16,11,44,20.30
2009,08,16,11,45,20.40
2009,08,16,11,46,20.40
2009,08,16,11,47,20.20
2009,08,16,11,48,20.20
2009,08,16,11,49,20.20
2009,08,16,11,50,20.40
2009,08,16,11,51,20.60
2009,08,16,11,52,20.50
2009,08,16,11,53,20.40
2009,08,16,11,54,20.40
2009,08,16,11,55,20.40
2009,08,16,11,56,20.40
2009,08,16,11,57,20.40
2009,08,16,11,58,20.40
2009,08,16,11,59,20.40
2009,08,16,12,00,20.40
2009,08,16,12,01,20.30
2009,08,16,12,02,20.30
2009,08,16,12,03,20.00
2009,08,16,12,04,19.90
2009,08,16,12,05,19.90
2009,08,16,12,06,19.90
2009,08,16,12,07,19.90
2009,08,16,12,08,19.90
2009,08,16,12,09,19.90
2009,08,16,12,10,19.90
2009,08,16,12,11,19.90
2009,08,16,12,12,19.90
2009,08,16,12,13,20.00
2009,08,16,12,14,20.20
2009,08,16,12,15,20.20
2009,08,16,12,16,20.10
2009,08,16,12,17,20.10
2009,08,16,12,18,20.10
2009,08,16,12,19,20.20
2009,08,16,12,20,20.20
2009,08,16,12,21,20.30
2009,08,16,12,22,20.40
2009,08,16,12,23,20.50
2009,08,16,12,24,20.50
2009,08,16,12,25,20.50
2009,08,16,12,26,20.50
2009,08,16,12,27,20.40
2009,08,16,12,28,20.30
2009,08,16,12,29,20.20
2009,08,16,12,30,20.20
2009,08,16,12,31,20.20
2009,08,16,12,32,20.20
2009,08,16,12,33,20.30
2009,08,16,12,34,20.30
2009,08,16,12,35,20.30
2009,08,16,12,36,20.40
2009,08,16,12,37,20.40
2009,08,16,12,38,20.40
2009,08,16,12,39,20.40
2009,08,16,12,40,20.40
2009,08,16,12,41,20.40
2009,08,16,12,42,20.50
2009,08,16,12,43,20.50
2009,08,16,12,44,20.60
2009,08,16,12,45,20.60
2009,08,16,12,46,20.50
2009,08,16,12,47,20.40
2009,08,16,12,48,20.40
2009,08,16,12,49,20.50
2009,08,16,12,50,20.60
2009,08,16,12,51,20.70
2009,08,16,12,52,20.80
2009,08,16,12,53,21.00
2009,08,16,12,54,21.00
2009,08,16,12,55,21.10
2009,08,16,12,56,21.10
2009,08,16,12,57,21.00
2009,08,16,12,58,21.00
2009,08,16,12,59,21.00
2009,08,16,13,00,20.90
2009,08,16,13,01,20.80
2009,08,16,13,02,20.70
2009,08,16,13,03,20.70
2009,08,16,13,04,20.70
2009,08,16,13,05,20.60
2009,08,16,13,06,20.50
2009,08,16,13,07,20.50
2009,08,16,13,08,20.30
2009,08,16,13,09,20.20
2009,08,16,13,10,20.20
2009,08,16,13,11,20.20
2009,08,16,13,12,20.20
2009,08,16,13,13,20.20
2009,08,16,13,14,20.30
2009,08,16,13,15,20.30
2009,08,16,13,16,20.20
2009,08,16,13,17,20.20
2009,08,16,13,18,20.20
2009,08,16,13,19,20.10
2009,08,16,13,20,20.10
2009,08,16,13,21,20.10
2009,08,16,13,22,20.10
2009,08,16,13,23,20.20
2009,08,16,13,24,20.20
2009,08,16,13,25,20.20
2009,08,16,13,26,20.20
2009,08,16,13,27,20.30
2009,08,16,13,28,20.30
2009,08,16,13,29,20.20
2009,08,16,13,30,20.30
2009,08,16,13,31,20.40
2009,08,16,13,32,20.40
2009,08,16,13,33,20.40
2009,08,16,13,34,20.40
2009,08,16,13,35,20.50
2009,08,16,13,36,20.70
2009,08,16,13,37,20.80
2009,08,16,13,38,21.10
2009,08,16,13,39,21.20
2009,08,16,13,40,21.30
2009,08,16,13,41,21.30
2009,08,16,13,42,21.30
2009,08,16,13,43,21.30
2009,08,16,13,44,21.20
2009,08,16,13,45,21.10
2009,08,16,13,46,21.10
2009,08,16,13,47,21.10
2009,08,16,13,48,21.00
2009,08,16,13,49,21.00
2009,08,16,13,50,20.90
2009,08,16,13,51,20.80
2009,08,16,13,52,20.80
2009,08,16,13,53,20.70
2009,08,16,13,54,20.60
2009,08,16,13,55,20.50
2009,08,16,13,56,20.50
2009,08,16,13,57,20.30
2009,08,16,13,58,20.20
2009,08,16,13,59,20.20
2009,08,16,14,00,20.20
2009,08,16,14,01,20.20
2009,08,16,14,02,20.20
2009,08,16,14,03,20.30
2009,08,16,14,04,20.50
2009,08,16,14,05,20.60
2009,08,16,14,06,20.70
2009,08,16,14,07,20.90
2009,08,16,14,08,21.00
2009,08,16,14,09,21.20
2009,08,16,14,10,21.30
2009,08,16,14,11,21.30
2009,08,16,14,12,21.30
2009,08,16,14,13,21.30
2009,08,16,14,14,21.30
2009,08,16,14,15,21.30
2009,08,16,14,16,21.30
2009,08,16,14,17,21.30
2009,08,16,14,18,21.20
2009,08,16,14,19,21.10
2009,08,16,14,20,21.10
2009,08,16,14,21,21.10
2009,08,16,14,22,21.20
2009,08,16,14,23,21.20
2009,08,16,14,24,21.10
2009,08,16,14,25,21.00
2009,08,16,14,26,21.00
2009,08,16,14,27,21.00
2009,08,16,14,28,21.00
2009,08,16,14,29,21.00
2009,08,16,14,30,21.10
2009,08,16,14,31,21.20
2009,08,16,14,32,21.30
2009,08,16,14,33,21.30
2009,08,16,14,34,21.30
2009,08,16,14,35,21.20
2009,08,16,14,36,21.20
2009,08,16,14,37,21.30
2009,08,16,14,38,21.30
2009,08,16,14,39,21.30
2009,08,16,14,40,21.40
2009,08,16,14,41,21.40
2009,08,16,14,42,21.40
2009,08,16,14,43,21.50
2009,08,16,14,44,21.60
2009,08,16,14,45,21.60
2009,08,16,14,46,21.70
2009,08,16,14,47,21.70
2009,08,16,14,48,21.60
2009,08,16,14,49,21.60
2009,08,16,14,50,21.60
2009,08,16,14,51,21.40
2009,08,16,14,52,21.40
2009,08,16,14,53,21.30
2009,08,16,14,54,21.30
2009,08,16,14,55,21.30
2009,08,16,14,56,21.40
2009,08,16,14,57,21.40
2009,08,16,14,58,21.40
2009,08,16,14,59,21.40
2009,08,16,15,00,21.40
2009,08,16,15,01,21.30
2009,08,16,15,02,21.30
2009,08,16,15,03,21.30
2009,08,16,15,04,21.20
2009,08,16,15,05,21.10
2009,08,16,15,06,21.00
2009,08,16,15,07,21.00
2009,08,16,15,08,21.00
2009,08,16,15,09,21.00
2009,08,16,15,10,20.90
2009,08,16,15,11,21.00
2009,08,16,15,12,21.00
2009,08,16,15,13,21.20
2009,08,16,15,14,21.20
2009,08,16,15,15,21.20
2009,08,16,15,16,21.40
2009,08,16,15,17,21.50
2009,08,16,15,18,21.60
2009,08,16,15,19,21.60
2009,08,16,15,20,21.40
2009,08,16,15,21,21.40
2009,08,16,15,22,21.40
2009,08,16,15,23,21.30
2009,08,16,15,24,21.30
2009,08,16,15,25,21.20
2009,08,16,15,26,21.10
2009,08,16,15,27,21.00
2009,08,16,15,28,20.90
2009,08,16,15,29,20.90
2009,08,16,15,30,20.80
2009,08,16,15,31,20.80
2009,08,16,15,32,20.80
2009,08,16,15,33,20.80
2009,08,16,15,34,20.80
2009,08,16,15,35,20.80
2009,08,16,15,36,20.90
2009,08,16,15,37,21.00
2009,08,16,15,38,21.20
2009,08,16,15,39,21.30
2009,08,16,15,40,21.30
2009,08,16,15,41,21.30
2009,08,16,15,42,21.30
2009,08,16,15,43,21.20
2009,08,16,15,44,21.10
2009,08,16,15,45,21.00
2009,08,16,15,46,20.90
2009,08,16,15,47,20.80
2009,08,16,15,48,20.70
2009,08,16,15,49,20.60
2009,08,16,15,50,20.70
2009,08,16,15,51,20.80
2009,08,16,15,52,20.90
2009,08,16,15,53,21.00
2009,08,16,15,54,21.00
2009,08,16,15,55,21.10
2009,08,16,15,56,21.10
2009,08,16,15,57,21.10
2009,08,16,15,58,21.00
2009,08,16,15,59,21.00
2009,08,16,16,00,21.00
2009,08,16,16,01,20.90
2009,08,16,16,02,20.90
2009,08,16,16,03,21.00
2009,08,16,16,04,21.00
2009,08,16,16,05,21.10
2009,08,16,16,06,21.10
2009,08,16,16,07,21.20
2009,08,16,16,08,21.30
2009,08,16,16,09,21.30
2009,08,16,16,10,21.30
2009,08,16,16,11,21.30
2009,08,16,16,12,21.30
2009,08,16,16,13,21.30
2009,08,16,16,14,21.30
2009,08,16,16,15,21.30
2009,08,16,16,16,21.30
2009,08,16,16,17,21.30
2009,08,16,16,18,21.30
2009,08,16,16,19,21.40
2009,08,16,16,20,21.40
2009,08,16,16,21,21.40
2009,08,16,16,22,21.50
2009,08,16,16,23,21.60
2009,08,16,16,24,21.60
2009,08,16,16,25,21.60
2009,08,16,16,26,21.50
2009,08,16,16,27,21.40
2009,08,16,16,28,21.40
2009,08,16,16,29,21.30
2009,08,16,16,30,21.30
2009,08,16,16,31,21.30
2009,08,16,16,32,21.30
2009,08,16,16,33,21.40
2009,08,16,16,34,21.40
2009,08,16,16,35,21.40
2009,08,16,16,36,21.40
2009,08,16,16,37,21.40
2009,08,16,16,38,21.30
2009,08,16,16,39,21.40
2009,08,16,16,40,21.40
2009,08,16,16,41,21.40
2009,08,16,16,42,21.40
2009,08,16,16,43,21.20
2009,08,16,16,44,21.10
2009,08,16,16,45,21.00
2009,08,16,16,46,21.00
2009,08,16,16,47,21.00
2009,08,16,16,48,21.00
2009,08,16,16,49,21.00
2009,08,16,16,50,21.00
2009,08,16,16,51,21.10
2009,08,16,16,52,21.10
2009,08,16,16,53,21.20
2009,08,16,16,54,21.20
2009,08,16,16,55,21.20
2009,08,16,16,56,21.10
2009,08,16,16,57,21.10
2009,08,16,16,58,21.10
2009,08,16,16,59,21.10
2009,08,16,17,00,21.10
2009,08,16,17,01,21.10
2009,08,16,17,02,21.00
2009,08,16,17,03,21.00
2009,08,16,17,04,21.10
2009,08,16,17,05,21.10
2009,08,16,17,06,21.00
2009,08,16,17,07,21.00
2009,08,16,17,08,21.10
2009,08,16,17,09,21.10
2009,08,16,17,10,21.10
2009,08,16,17,11,21.20
2009,08,16,17,12,21.30
2009,08,16,17,13,21.40
2009,08,16,17,14,21.50
2009,08,16,17,15,21.60
2009,08,16,17,16,21.60
2009,08,16,17,17,21.60
2009,08,16,17,18,21.60
2009,08,16,17,19,21.50